Location: Hamburg
(53.5500°N, 10.0000°E)
Time: 20:08:33
(UTC+02:00)

Daily predictions for brighter satellites

Satellite Brightness Start Highest point End
(mag) Time Altitude Azimuth Time Altitude Azimuth Time Altitude Azimuth
Meteor 2-5 Rocket 3.9 19:31:34 10° NNW 19:37:30 88° ENE 19:43:17 10° SSE
Cosmos 1758 Rocket 4.2 19:35:12 10° NNW 19:39:41 66° W 19:44:08 10° S
Cosmos 2369 4.4 19:34:46 10° NNW 19:40:03 37° NE 19:45:17 10° ESE
Cosmos 2084 3.8 19:36:31 10° SSW 19:40:16 39° SE 19:43:52 10° ENE
CZ-4 R/B 4.0 19:36:47 10° SSW 19:40:25 28° W 19:44:06 10° NW
Cosmos 1763 Rocket 3.6 19:35:29 10° S 19:40:29 55° ESE 19:45:35 10° NNE
SJ-6B 3.1 19:39:55 10° SE 19:43:43 47° ENE 19:47:27 10° N
H-2A R/B 2.9 19:40:11 10° SE 19:43:49 50° ENE 19:47:33 10° N
Cosmos 2074 Rocket 4.3 19:39:20 10° SSE 19:45:10 45° E 19:51:02 10° NNE
Cosmos 1544 4.1 19:44:22 10° SE 19:47:20 24° E 19:50:19 10° NE
Cosmos 1953 4.1 19:46:43 10° ESE 19:48:46 14° E 19:50:50 10° NE
Cosmos 2219 Rocket 4.5 19:45:57 10° NW 19:48:58 14° NNW 19:52:00 10° NNE
Cosmos 304 Rocket 4.1 19:44:32 10° S 19:49:06 45° ESE 19:53:42 10° NE
Cosmos 1726 Rocket 3.5 19:44:50 10° S 19:49:10 81° E 19:53:31 10° NNE
SJ 16-02 1.6 19:46:12 10° NNW 19:50:32 51° ENE 19:54:49 10° SE
USA 186 3.1 19:49:34 10° E 19:50:44 13° ENE 19:51:52 10° NE
Cosmos 1378 3.9 19:47:40 10° NNW 19:51:25 59° W 19:55:08 10° S
Cosmos 1709 Rocket 4.2 19:45:30 10° SSW 19:51:53 84° W 19:58:20 10° N
OPS 8737 4.5 19:49:31 10° SSW 19:52:55 57° SE 19:56:16 10° NE
Cosmos 1943 3.9 19:47:25 10° SW 19:53:03 61° NW 19:58:44 10° NNE
FengYun 1-2 T 4.2 19:48:38 10° SSE 19:54:12 75° ENE 19:59:45 10° NNW
Cosmos 1356 Rocket 3.6 19:52:36 10° NNW 19:56:56 82° WSW 20:01:14 10° S
EO 1 Del DPAF 4.3 19:53:17 10° N 19:57:01 50° WNW 20:00:45 10° SW
Cosmos 1707 3.9 19:53:13 10° NNW 19:57:02 48° W 20:00:50 10° S
Cosmos 1674 3.6 19:59:04 10° N 20:02:24 29° ENE 20:05:42 10° SE
SL-27 R/B 4.0 20:01:19 10° SE 20:03:43 17° E 20:06:09 10° ENE
Cosmos 389 Rocket 3.5 20:00:21 10° SSW 20:03:44 50° WNW 20:07:08 10° N
Nadezhda 3 Rocket 4.2 20:01:25 10° N 20:07:38 54° ENE 20:13:44 10° SSE
Cosmos 2228 3.0 20:04:16 10° S 20:08:37 86° E 20:12:58 10° NNE
ALOS 3.1 20:04:26 10° S 20:09:01 55° W 20:13:38 10° NNW
Resurs 1-3 4.0 20:04:58 10° SE 20:09:06 43° ENE 20:13:17 10° N
BREEZE-M DEB (TANK) 2.7 20:06:49 10° W 20:09:10 26° SSW 20:10:35 13° SE
Cosmos 1766 3.4 20:06:08 10° S 20:09:54 49° E 20:13:42 10° NNE
HJ-1C 3.3 20:08:45 10° SSE 20:12:06 83° ENE 20:15:31 10° NNW
Cosmos 2278 3.9 20:08:37 10° NNW 20:14:12 55° NE 20:19:24 12° SE
Thor Agena Rocket 3.5 20:10:49 10° NNE 20:16:06 74° ESE 20:21:18 10° S
Spot 2 Rocket 3.7 20:11:35 10° SE 20:16:27 51° ENE 20:21:20 10° N
Cosmos 2322 Rocket 3.9 20:19:57 10° NNW 20:23:58 19° NNE 20:27:43 11° ENE
ATLAS 2AS CENTAUR R/B 3.1 20:15:59 10° NW 20:24:10 74° NE 20:30:49 15° ESE
Cosmos 2184 Rocket 4.0 20:18:34 10° S 20:24:54 79° E 20:31:19 10° NNE
Cosmos 1656 3.9 20:20:13 10° NNW 20:25:50 55° NE 20:30:19 16° SE
Cosmos 1812 Rocket 3.7 20:25:49 10° S 20:30:09 52° E 20:34:32 10° NNE
ISS -1.6 20:29:04 10° S 20:29:51 12° SSE 20:29:51 12° SSE
Cosmos 2360 Rocket 4.3 20:27:48 10° NNW 20:31:04 15° NNE 20:34:20 10° NE
GP-B 3.2 20:26:46 10° N 20:31:09 54° E 20:35:30 10° SSE
Cosmos 1733 4.4 20:30:29 21° ESE 20:31:11 23° E 20:34:13 10° NE
Meteor 1-24 Rocket 4.5 20:25:59 10° NNW 20:31:53 59° W 20:37:35 10° S
Cosmos 1697 Rocket 3.1 20:26:40 10° NNW 20:32:10 47° NE 20:35:57 19° ESE
Cosmos 1758 3.7 20:30:05 10° SSE 20:33:49 39° E 20:37:34 10° NNE
Cosmos 1980 Rocket 3.0 20:29:05 10° NNW 20:34:16 35° NE 20:37:33 20° E
ERS-1 Rocket 4.2 20:32:18 18° E 20:34:27 24° NE 20:38:26 10° N
NOSS 3-4 (A) 4.4 20:29:39 10° NW 20:36:03 44° NNE 20:41:16 17° E
NOSS 3-4 (C) 4.4 20:29:45 10° NW 20:36:08 44° NNE 20:41:21 17° E
Cosmos 1125 Rocket 4.4 20:31:44 10° NW 20:36:52 51° WSW 20:42:00 10° S
Resurs 01 Rocket 1.5 20:32:41 10° SSE 20:37:06 80° ENE 20:41:33 10° NNW
Cosmos 1818 4.0 20:33:17 10° NW 20:38:37 49° NE 20:41:57 22° E
Cosmos 2058 Rocket 4.2 20:35:27 10° SSW 20:39:41 47° WNW 20:43:58 10° N
Cosmos 1805 3.2 20:36:43 10° S 20:40:34 63° E 20:44:26 10° NNE
Cosmos 2327 Rocket 4.5 20:36:38 10° S 20:42:44 87° W 20:48:52 10° N
Helios 1A 3.9 20:43:38 25° E 20:44:58 31° ENE 20:48:39 10° N
KORONAS-FOTON 3.8 20:42:24 10° N 20:46:11 59° ENE 20:48:24 23° SSE
CZ-2D R/B 3.6 20:44:04 10° S 20:47:52 66° WSW 20:51:42 10° NNW
Envisat 2.9 20:43:53 10° SSE 20:48:58 82° ENE 20:54:05 10° NNW
Cosmos 2084 Rocket 3.2 20:45:28 10° NW 20:49:20 64° NE 20:50:53 33° ESE
Cosmos 1939 Rocket 2.9 20:48:51 24° SE 20:51:00 58° ENE 20:54:55 10° N
Cosmos 1766 Rocket 4.0 20:48:01 10° N 20:52:11 42° ENE 20:53:46 30° ESE
Okean 3 Rocket 3.5 20:51:38 10° N 20:56:09 80° ENE 20:59:36 17° SSE
USA 267 3.5 20:54:10 15° ENE 20:59:47 70° N 21:06:18 10° W
Cosmos 1470 3.1 21:00:23 37° ESE 21:01:08 41° E 21:04:55 10° NNE
ARGOS 4.0 21:00:38 27° E 21:02:22 33° ENE 21:07:10 10° N
SL-16 R/B 3.5 20:58:34 10° NNW 21:03:23 27° NE 21:05:41 21° ENE
Cosmos 962 Rocket 4.5 20:57:31 10° S 21:03:49 66° E 21:10:08 10° NNE
Cosmos 841 Rocket 4.4 20:59:42 10° SW 21:04:41 49° NW 21:09:43 10° NNE
NOAA 11 4.3 21:10:12 32° SE 21:12:29 54° ENE 21:17:46 10° N
MOS 1-B Rocket 4.2 21:07:11 10° S 21:13:03 67° WSW 21:18:39 10° NNW
Cosmos 540 Rocket 3.7 21:09:23 10° SW 21:14:28 70° WNW 21:19:37 10° NNE
H-2A R/B 3.0 21:14:36 27° ENE 21:15:18 28° ENE 21:19:39 10° N
YAOGAN 6 2.4 21:16:03 55° SSE 21:16:47 81° ENE 21:20:27 10° NNW
Cosmos 2058 4.1 21:15:11 10° N 21:18:22 27° NE 21:18:22 27° NE
Cosmos 2084 4.3 21:15:59 10° WSW 21:19:45 43° NNW 21:22:31 16° NE
COSMOS 2406 3.6 21:14:28 10° SW 21:20:11 68° NW 21:25:58 10° NNE
BREEZE-M DEB (TANK) 4.2 21:15:44 10° W 21:20:11 59° S 21:27:23 27° ESE
USA 186 3.1 21:21:10 24° WSW 21:21:23 25° W 21:23:23 10° NW
Cosmos 1500 Rocket 4.5 21:18:39 10° N 21:22:28 33° ENE 21:22:28 33° ENE
Cosmos 292 Rocket 3.6 21:18:41 10° SSW 21:23:33 77° ESE 21:28:26 10° NNE
SPOT 5 3.7 21:23:56 30° ENE 21:23:56 30° ENE 21:27:48 10° N
Cosmos 2369 4.2 21:18:58 10° NW 21:24:30 57° WSW 21:28:15 21° S
Cosmos 1953 2.4 21:20:33 10° SSW 21:24:36 77° W 21:28:43 10° N
Cosmos 1076 Rocket 3.8 21:21:10 10° NNW 21:25:32 66° W 21:27:59 25° S
SJ 16-02 3.5 21:25:19 10° NW 21:28:50 24° W 21:32:20 10° SSW
SL-14 R/B 3.1 21:25:56 10° N 21:29:53 84° E 21:30:14 72° SSE
BREEZE M DEB (TANK) 2.9 21:26:32 10° W 21:30:00 36° SW 21:30:00 36° SW
Cosmos 2154 Rocket 4.3 21:24:18 10° SSW 21:30:31 68° WNW 21:36:50 10° N
Cosmos 1626 3.3 21:27:30 10° N 21:29:58 30° NE 21:29:58 30° NE
Cosmos 1833 Rocket 3.8 21:33:51 27° ENE 21:33:51 27° ENE 21:36:48 10° NE
Cosmos 2219 Rocket 4.4 21:32:19 10° NNW 21:35:26 15° NNE 21:38:34 10° NE
Cosmos 1328 3.6 21:32:37 10° N 21:36:42 79° E 21:36:46 79° E
SL-27 R/B 3.2 21:34:59 10° SW 21:38:34 54° WNW 21:42:11 10° NNE
Meteor 1-11 4.2 21:32:53 10° N 21:38:43 70° ENE 21:40:27 46° SE
Cosmos 1538 Rocket 4.0 21:38:59 52° SE 21:39:44 57° ESE 21:44:52 10° NNE
H-2A R/B 4.5 21:43:53 12° NE 21:43:53 12° NE 21:44:52 10° NNE
Cosmos 2341 Rocket 4.2 21:39:11 10° SSW 21:45:22 72° WNW 21:51:40 10° N
Cosmos 1400 Rocket 3.8 21:45:03 10° N 21:48:05 38° NNE 21:48:05 38° NNE
Meteor 1-16 Rocket 4.1 21:49:24 58° E 21:49:24 58° E 21:54:36 10° NNE
Meteor 2-21 4.4 21:43:18 10° S 21:49:28 90° W 21:55:37 10° NNE
Cosmos 2360 4.1 21:43:50 10° NNW 21:49:36 82° ENE 21:50:48 57° SE
MetOp-B 4.0 21:52:56 61° SE 21:53:53 80° ENE 21:59:16 10° NNW
SL-08 RB Rocket 4.0 21:54:38 52° NE 21:54:38 52° NE 21:58:33 10° N
Cosmos 1959 Rocket 4.4 21:51:43 30° S 21:55:00 80° E 22:01:20 10° NNE
Cosmos 2082 Rocket 2.7 21:58:43 43° ENE 21:58:43 43° ENE 22:02:47 10° NE
Cosmos 1408 Rocket 4.2 21:56:13 10° NNW 22:00:26 52° W 22:01:15 45° SW
Cosmos 2366 rocket 3.9 22:00:34 38° S 22:03:12 82° E 22:09:31 10° NNE
Cosmos 2151 3.5 22:02:33 10° N 22:05:58 54° N 22:05:58 54° N
Helios 1B rocket 4.1 22:03:10 10° NNE 22:05:03 26° NNE 22:05:03 26° NNE
Cosmos 2322 Rocket 2.4 22:03:48 10° NNW 22:09:20 54° NE 22:09:32 54° ENE
Cosmos 2218 Rocket 3.9 22:05:57 29° SSW 22:09:21 84° W 22:15:35 10° N
Cosmos 773 Rocket 4.2 22:11:37 59° NE 22:11:37 59° NE 22:15:55 10° NNE
ERS-1 Rocket 3.0 22:12:19 65° SW 22:12:49 70° WSW 22:17:52 10° NNW
Cosmos 2285 Rocket 4.0 22:06:36 10° SSW 22:13:03 81° WNW 22:19:33 10° NNE
Cosmos-2242 3.5 22:14:01 57° NNW 22:14:01 57° NNW 22:17:36 10° N
Resurs 01 Rocket 4.4 22:11:29 10° SW 22:14:10 16° W 22:16:52 10° NW
ATLAS 2AS CENTAUR R/B 3.8 22:07:26 10° NW 22:14:54 43° WSW 22:18:15 29° SSW
Cosmos 1697 Rocket 3.6 22:10:49 10° NW 22:16:08 42° WSW 22:17:42 34° SSW
Cosmos 2360 Rocket 3.2 22:11:44 10° NNW 22:16:52 34° NE 22:17:06 34° NE
Cosmos 1980 Rocket 2.4 22:13:03 10° NW 22:18:39 62° WSW 22:19:19 57° SSW
SL-08 R/B 4.5 22:16:36 42° SSW 22:18:57 84° W 22:25:14 10° N
Terra 3.0 22:20:38 33° NNE 22:20:38 33° NNE 22:23:51 10° N
Cosmos 2056 Rocket 3.7 22:14:07 10° NNW 22:19:13 62° NE 22:19:13 62° NE
Helios 1A 4.2 22:20:17 36° WSW 22:20:29 37° W 22:24:23 10° NNW
SPOT 1/Viking Rocket 3.6 22:21:48 67° NNE 22:21:48 67° NNE 22:26:29 10° NNW
Cosmos 1818 4.1 22:17:01 10° NW 22:22:16 49° SW 22:22:35 49° SW
Meteor 2-16 Rocket 4.5 22:23:22 41° SSW 22:25:36 75° WNW 22:31:44 10° N
NOSS 3-4 (A) 3.6 22:20:46 10° NW 22:27:40 87° SW 22:28:42 68° SE
NOSS 3-4 (C) 3.6 22:20:53 10° NW 22:27:45 88° SW 22:28:48 68° SE
Cosmos 1727 Rocket 4.4 22:22:08 10° NNW 22:28:18 58° W 22:30:24 40° SSW
Cosmos 1743 Rocket 4.5 22:26:27 10° NNW 22:30:00 46° WNW 22:30:00 46° WNW
Cosmos 1241 Rocket 4.3 22:30:22 10° NW 22:36:42 82° SW 22:36:48 82° SSW
Cosmos 1452 Rocket 4.4 22:34:19 10° NNW 22:38:22 39° NNE 22:38:22 39° NNE
COSMOS 2428 4.0 22:37:08 10° NNW 22:42:05 29° NE 22:42:09 29° NE
ARGOS 3.6 22:42:10 52° WSW 22:42:26 53° W 22:47:46 10° NNW
USA 267 3.3 22:41:31 61° ENE 22:42:36 73° NNE 22:49:08 10° WNW
Iridium 4 Rocket 4.1 22:46:49 50° NW 22:46:49 50° NW 22:51:15 10° N
Cosmos 1821 Rocket 4.4 22:48:58 48° NE 22:48:58 48° NE 22:53:31 10° NNE
SL-16 R/B 2.4 22:42:31 10° NNW 22:47:32 70° NNW 22:47:32 70° NNW
Cosmos 2333 Rocket 3.9 22:43:54 10° NNW 22:48:21 23° NNE 22:49:01 22° NE
H-2A R/B 2.7 22:55:14 51° WNW 22:55:14 51° WNW 22:59:31 10° NNW
Cosmos 2123 Rocket 4.1 22:52:06 10° N 22:57:30 67° NNE 22:57:30 67° NNE
SPOT 5 4.2 23:03:10 33° WNW 23:03:10 33° WNW 23:06:09 10° NNW
SL-16 R/B 4.4 23:06:08 10° NNW 23:09:38 16° NNE 23:11:40 14° NE
Cosmos 1833 Rocket 3.4 23:15:28 51° NW 23:15:28 51° NW 23:20:59 10° NNE
Cosmos 2237 Rocket 3.9 23:13:33 10° NNW 23:18:06 24° NNE 23:18:15 24° NE
H-2A R/B 4.2 23:21:00 23° N 23:21:00 23° N 23:22:47 10° N
Cosmos 2219 Rocket 3.6 23:16:14 10° NNW 23:20:25 31° NNE 23:20:25 31° NNE
Cosmos 2082 Rocket 3.5 23:40:28 34° WNW 23:41:34 38° NW 23:46:53 10° NNE
Cosmos 2322 Rocket 3.8 23:48:09 10° NW 23:51:20 28° WNW 23:51:20 28° WNW
